Location: Beadle
(51.4667°N, 109.0000°W)
Time: 18:14:20
(UTC+00:00)

O/OREOS (USA 219) - Pass Details

Date: 01 July 2022
Orbit: 621 x 646 km, 72.0° (Epoch: 22 May)

Event Time Altitude Azimuth Distance (km) Brightness Sun altitude
Rises 07:11:35 0° 332° (NNW) 2,964 ? -15.4°
Reaches altitude 10° 07:13:52 10° 334° (NNW) 2,053 ? -15.4°
Maximum altitude 07:18:30 76° 61° (ENE) 671 ? -15.4°
Enters shadow 07:21:37 20° 145° (SE) 1,476 ? -15.4°
